LKKB Weather Reports


time (UTC)temp
C
wind
direction
speed
KPH
gust
KPH
rain 1hr
cm
rain 24hr
cm
rain mn
cm
humidity
%
barometer
mb
20260901203103 16 190 4.8 0.0 0.00 0.00 0.00 67 1020.0
20260901202050 17 200 3.2 0.0 0.00 0.00 0.00 59
20260901193102 17 290 1.6 0.0 0.00 0.00 0.00 63 1020.0
20260901192052 18 290 3.2 0.0 0.00 0.00 0.00 55
20260901183102 18 0 3.2 0.0 0.00 0.00 0.00 59 1020.0
20260901181851 20 220 3.2 0.0 0.00 0.00 0.00 52
20260901180103 20 190 4.8 0.0 0.00 0.00 0.00 52 1020.0
20260901173102 21 280 8.0 0.0 0.00 0.00 0.00 46 1019.0
20260901172052 22 270 8.0 0.0 0.00 0.00 0.00 43
20260901170212 21 270 8.0 0.0 0.00 0.00 0.00 49 1019.0
20260901163103 22 240 11.3 0.0 0.00 0.00 0.00 46 1019.0
20260901162154 22 240 8.0 0.0 0.00 0.00 0.00 43
20260901153103 22 290 8.0 0.0 0.00 0.00 0.00 43 1020.0
20260901151851 22 280 8.0 0.0 0.00 0.00 0.00 43
20260901150103 22 280 9.7 0.0 0.00 0.00 0.00 46 1020.0
20260901143102 22 300 14.5 0.0 0.00 0.00 0.00 46 1020.0
20260901142051 22 300 11.3 0.0 0.00 0.00 0.00 43
20260901133103 22 270 14.5 0.0 0.00 0.00 0.00 46 1020.0
20260901131952 22 260 14.5 0.0 0.00 0.00 0.00 46
20260901123209 21 270 9.7 0.0 0.00 0.00 0.00 52 1020.0
20260901121851 21 290 14.5 0.0 0.00 0.00 0.00 49
20260901120103 21 290 12.9 0.0 0.00 0.00 0.00 52 1021.0
20260901113103 21 290 19.3 0.0 0.00 0.00 0.00 52 1021.0
20260901111952 21 280 19.3 0.0 0.00 0.00 0.00 52
20260901103103 21 280 19.3 0.0 0.00 0.00 0.00 52 1020.0
20260901102152 20 270 19.3 0.0 0.00 0.00 0.00 52
20260901093102 20 270 24.1 0.0 0.00 0.00 0.00 56 1020.0
20260901091851 18 260 22.5 0.0 0.00 0.00 0.00 59
20260901090103 18 270 20.9 0.0 0.00 0.00 0.00 63 1020.0
20260901083103 18 270 22.5 0.0 0.00 0.00 0.00 63 1020.0
20260901082055 17 260 19.3 0.0 0.00 0.00 0.00 63
20260901073103 17 250 24.1 0.0 0.00 0.00 0.00 67 1020.0
20260901072052 17 250 22.5 0.0 0.00 0.00 0.00 67
20260901070211 17 240 24.1 0.0 0.00 0.00 0.00 72 1020.0
20260901063210 17 230 12.9 0.0 0.00 0.00 0.00 77 1020.0
20260901061851 17 220 14.5 0.0 0.00 0.00 0.00 72
20260901053102 16 200 12.9 0.0 0.00 0.00 0.00 77 1019.0
20260901051951 16 230 19.3 0.0 0.00 0.00 0.00 77
20260901043102 15 220 11.3 0.0 0.00 0.00 0.00 82 1019.0
20260901042151 16 230 14.5 0.0 0.00 0.00 0.00 77
20260901033103 15 230 14.5 0.0 0.00 0.00 0.00 82 1018.0
20260901031851 16 230 14.5 0.0 0.00 0.00 0.00 72
20260901030103 15 230 16.1 0.0 0.00 0.00 0.00 82 1018.0
20260901023103 16 220 14.5 0.0 0.00 0.00 0.00 77 1018.0
20260901022052 17 230 19.3 0.0 0.00 0.00 0.00 67
20260901013102 17 230 20.9 0.0 0.00 0.00 0.00 67 1018.0
20260901012055 17 230 22.5 0.0 0.00 0.00 0.00 63
20260901003103 17 220 16.1 0.0 0.00 0.00 0.00 67 1018.0
20260901001851 17 240 22.5 0.0 0.00 0.00 0.00 59
20260831233107 17 230 16.1 0.0 0.00 0.00 0.00 67 1018.0
20260831232024 17 230 19.3 0.0 0.00 0.00 0.00 59
20260831230104 17 230 19.3 0.0 0.00 0.00 0.00 67 1017.0
20260831223102 17 230 19.3 0.0 0.00 0.00 0.00 63 1017.0
20260831222154 18 230 19.3 0.0 0.00 0.00 0.00 59
20260831213103 16 220 14.5 0.0 0.00 0.00 0.00 77 1017.0
20260831211851 17 220 14.5 0.0 0.00 0.00 0.00 63
20260831210103 17 220 14.5 0.0 0.00 0.00 0.00 72 1016.0